Voltar ao catálogo

SL-8 R/B

AtivoPO
NORAD 20805·ROCKET BODY·🇷🇺 Russia

Lançado Sep 14, 1990 de Plesetsk Cosmodrome

Loading…

Próximas Passagens (próximas 24 horas)

TLE

AtualizadoSource: Space-Track

Época: Sep 14, 2026, 11:10 UTC

1 20805U 90083B   26257.46527959  .00000152  00000-0  14005-3 0  9995
2 20805  82.9322  73.5364 0029754 322.8619  65.6369 13.76247979807442

Acompanhe SL-8 R/B em tempo real com AllMySat

Download on the App Store